Location: Most
(50.5133°N, 13.6207°E)
Time: 02:23:55
(UTC+01:00)

ZACube-1 - Pass Details

Date: 08 December 2021
Orbit: 582 x 665 km, 97.6° (Epoch: 24 January)

Event Time Altitude Azimuth Distance (km) Brightness Sun altitude
Rises 05:08:29 0° 9° (N) 3,008 ? -25.0°
Reaches altitude 10° 05:10:46 10° 4° (N) 2,096 ? -24.6°
Enters shadow 05:11:23 14° 1° (N) 1,856 ? -24.5°
